Regional Weather Roundup
Issued by NWS Albany, NY

Home | Current Version | Previous Version | Text Only | Print | Product List | Glossary On
Versions: 1 2 3 4 5 6 7 8 9 10 11 12 13 14 15 16 17 18 19 20 21 22 23 24 25 26 27 28 29 30 31 32 33 34 35 36 37 38 39 40 41 42 43 44 45 46 47 48 49 50
000
ASUS41 KALY 191910
RWRALY

NEW YORK STATE HOURLY WEATHER ROUNDUP
NATIONAL WEATHER SERVICE ALBANY NY
300 PM EDT TUE AUG 19 2014

NOTE: "FAIR" INDICATES FEW OR NO CLOUDS BELOW 12,000 FEET WITH NO
SIGNIFICANT WEATHER AND/OR NO OBSTRUCTIONS TO VISIBILITY.

NYZ032-033-038>043-046>054-057>066-NYZ062>081-192000-
EAST


CITY           SKY/WX    TMP DP  RH WIND       PRES   REMARKS
ALBANY         MOSUNNY   77  49  37 NE5       29.91F
GLENS FALLS    SUNNY     75  52  44 W6        29.91F
POUGHKEEPSIE   SUNNY     79  54  41 CALM      29.89F
NEWBURGH       SUNNY     77  54  44 CALM      29.92F
MONTGOMERY     SUNNY     81  53  37 SE7       29.89F
WHITE PLAINS   MOSUNNY   78  57  48 E6        29.90F
ISLIP          MOSUNNY   76  62  62 SE10G16   29.89F
NEW YORK CITY  MOSUNNY   79  60  52 NE8       29.89F
CENTRAL PARK   PTSUNNY   79  59  50 CALM      29.92S
$$

NYZ005>009-017-018-044>046-055-056-192000-
CENTRAL


CITY           SKY/WX    TMP DP  RH WIND       PRES   REMARKS
FULTON         SUNNY     76  57  51 VRB3      29.87F
SYRACUSE       MOSUNNY   79  61  53 NE8       29.86F
ROME           SUNNY     76  55  48 SE5       29.89F
ELMIRA         PTSUNNY   78  65  63 VRB6      29.86F
BINGHAMTON     MOSUNNY   76  60  57 S6        29.91F
MONTICELLO     PTSUNNY   75  57  53 CALM      29.94F
$$

NYZ026>034-041>043-192000-
NORTH


CITY           SKY/WX    TMP DP  RH WIND       PRES   REMARKS
WATERTOWN      SUNNY     77  51  40 E8        29.88F
FORT DRUM      NOT AVBL
MASSENA        SUNNY     74  51  44 VRB3      29.92F
SARANAC LAKE   SUNNY     72  45  37 E5        29.92F
PLATTSBURGH    SUNNY     72  50  45 E7        29.92F
$$

NYZ001>004-010>016-019>021-192000-
WEST


CITY           SKY/WX    TMP DP  RH WIND       PRES   REMARKS
NIAGARA FALLS  MOSUNNY   79  61  53 NE7       29.85S
BUFFALO        MOSUNNY   76  58  53 S8        29.86S
DUNKIRK        SUNNY     74  59  59 NW9       29.87S
JAMESTOWN      SUNNY     75  57  53 W9        29.90S
WELLSVILLE     MOSUNNY   78  61  55 VRB6      29.92F
ROCHESTER      PTSUNNY   76  63  64 N14       29.85F
PENN YAN       MOSUNNY   78  65  63 VRB6      29.87F
$$

             KEY
       WCI = WIND CHILL INDEX
       VSB = VISIBILITY
       HX  = HEAT INDEX
$$


USA.gov is the U.S. government's official web portal to all federal, state and local government web resources and services.